Weather History for Dalaman, Turkey

Change the Weather History Date:

Monday, October 21, 2013

  Actual Average Record
Temperature  
Mean Temperature 60 °F -  
Max Temperature 73 °F 69 °F 87 °F (2004)
Min Temperature 46 °F 50 °F 44 °F (2005)
Degree Days  
Heating Degree Days 6    
Growing Degree Days 10 (Base 50)    
Moisture  
Dew Point 49 °F    
Average Humidity 70    
Maximum Humidity 94    
Minimum Humidity 31    
Precipitation  
Precipitation 0.00 in - - ()
Sea Level Pressure  
Sea Level Pressure 30.21 in    
Wind  
Wind Speed 6 mph ()    
Max Wind Speed 10 mph    
Max Gust Speed -    
Visibility 6.2 miles    
Events      
Averages and records for this station are not official NWS values.
T = Trace of Precipitation, MM = Missing Value Source: Averaged Metar Reports

Daily Weather History Graph

Daily Weather History Graph

Search for Another Location

Airport:

Trip Planner

Search our weather history database for the weather conditions in past years. The results will help you decide how hot, cold, wet, or windy it might be!

Date:

Astronomy

Oct. 21, 2013 Rise Set
Actual Time 7:17 AM EEST 6:20 PM EEST
Civil Twilight 6:51 AM EEST 6:46 PM EEST
Nautical Twilight 6:21 AM EEST 7:17 PM EEST
Astronomical Twilight 5:51 AM EEST 7:46 PM EEST
Moon 8:02 PM EEST (10/21) 9:30 AM EEST (10/21)
Length of Visible Light 11h 55m
Length of Day
11h 02m
Waning Gibbous, 94% of the Moon is Illuminated
Oct 21
Waning Gibbous
Oct 27
Last Quarter
Nov 3
New
Nov 10
First Quarter
Nov 17
Full

Hourly Weather History & Observations

Time (EEST) Temp. Windchill Dew Point Humidity Pressure Visibility Wind Dir Wind Speed Gust Speed Precip Events Conditions
12:20 AM 53.6 °F - 48.2 °F 82% 30.27 in - NE 5.8 mph - N/A   Clear
12:50 AM 53.6 °F - 48.2 °F 82% 30.27 in - ENE 6.9 mph - N/A   Clear
1:20 AM 51.8 °F - 48.2 °F 88% 30.27 in - NE 5.8 mph - N/A   Clear
1:50 AM 53.6 °F - 48.2 °F 82% 30.27 in - ENE 6.9 mph - N/A   Clear
2:20 AM 51.8 °F - 48.2 °F 88% 30.24 in - ENE 6.9 mph - N/A   Clear
2:50 AM 51.8 °F - 46.4 °F 82% 30.24 in - ENE 3.5 mph - N/A   Clear
3:20 AM 50.0 °F - 46.4 °F 87% 30.24 in - ENE 5.8 mph - N/A   Clear
3:50 AM 51.8 °F - 46.4 °F 82% 30.24 in - NE 6.9 mph - N/A   Clear
4:20 AM 50.0 °F - 46.4 °F 87% 30.24 in - NE 6.9 mph - N/A   Clear
4:50 AM 50.0 °F - 44.6 °F 82% 30.21 in - NE 5.8 mph - N/A   Clear
5:20 AM 50.0 °F - 44.6 °F 82% 30.21 in - NE 5.8 mph - N/A   Clear
5:50 AM 50.0 °F - 46.4 °F 87% 30.21 in - ENE 6.9 mph - N/A   Clear
6:20 AM 48.2 °F - 46.4 °F 93% 30.21 in - NE 6.9 mph - N/A   Clear
6:50 AM 48.2 °F - 44.6 °F 87% 30.21 in - NNE 5.8 mph - N/A   Clear
7:20 AM 46.4 °F 43.5 °F 44.6 °F 93% 30.21 in - NE 5.8 mph - N/A   Clear
7:50 AM 50.0 °F - 46.4 °F 87% 30.21 in - ENE 4.6 mph - N/A   Clear
8:20 AM 51.8 °F - 46.4 °F 82% 30.24 in - NE 5.8 mph - N/A   Clear
8:50 AM 55.4 °F - 48.2 °F 77% 30.24 in - ENE 4.6 mph - N/A   Clear
9:00 AM 56 °F - 48 °F 66% 30.25 in 6 mi ENE 4.6 mph - -  
9:20 AM 59.0 °F - 46.4 °F 63% 30.24 in - ENE 5.8 mph - N/A   Clear
9:50 AM 60.8 °F - 46.4 °F 59% 30.24 in - ENE 5.8 mph - N/A   Clear
10:20 AM 64.4 °F - 46.4 °F 52% 30.24 in - ENE 5.8 mph - N/A   Clear
10:50 AM 68.0 °F - 44.6 °F 43% 30.24 in - NNE 5.8 mph - N/A   Clear
11:20 AM 69.8 °F - 42.8 °F 38% 30.24 in - NNE 5.8 mph - N/A   Clear
11:50 AM 73.4 °F - 41.0 °F 31% 30.21 in - Variable 2.3 mph - N/A   Clear
12:20 PM 73.4 °F - 44.6 °F 36% 30.21 in 6.2 mi SSW 6.9 mph - N/A   Partly Cloudy
12:50 PM 73.4 °F - 48.2 °F 41% 30.21 in 6.2 mi SSW 8.1 mph - N/A   Partly Cloudy
1:20 PM 71.6 °F - 48.2 °F 43% 30.21 in 6.2 mi SW 9.2 mph - N/A   Partly Cloudy
1:50 PM 71.6 °F - 50.0 °F 46% 30.21 in 6.2 mi SW 10.4 mph - N/A   Partly Cloudy
2:20 PM 71.6 °F - 51.8 °F 50% 30.18 in 6.2 mi SSW 9.2 mph - N/A   Partly Cloudy
2:50 PM 71.6 °F - 50.0 °F 46% 30.18 in 6.2 mi SSW 9.2 mph - N/A   Partly Cloudy
3:00 PM 72 °F - 50 °F 34% 30.21 in 6 mi SSW 9.2 mph - -   Scattered Clouds
3:20 PM 71.6 °F - 53.6 °F 53% 30.18 in 6.2 mi SSW 9.2 mph - N/A   Partly Cloudy
3:50 PM 71.6 °F - 53.6 °F 53% 30.18 in 6.2 mi SW 9.2 mph - N/A   Partly Cloudy
4:20 PM 71.6 °F - 53.6 °F 53% 30.18 in 6.2 mi SSW 8.1 mph - N/A   Partly Cloudy
4:50 PM 71.6 °F - 53.6 °F 53% 30.18 in 6.2 mi SW 6.9 mph - N/A   Partly Cloudy
5:20 PM 69.8 °F - 53.6 °F 56% 30.18 in 6.2 mi SW 6.9 mph - N/A   Partly Cloudy
5:50 PM 69.8 °F - 53.6 °F 56% 30.18 in 6.2 mi SW 5.8 mph - N/A   Partly Cloudy
6:20 PM 68.0 °F - 53.6 °F 60% 30.18 in 6.2 mi SW 4.6 mph - N/A   Partly Cloudy
6:50 PM 66.2 °F - 55.4 °F 68% 30.18 in 6.2 mi SW 2.3 mph - N/A   Partly Cloudy
7:20 PM 62.6 °F - 55.4 °F 77% 30.18 in 6.2 mi East 3.5 mph - N/A   Partly Cloudy
7:50 PM 59.0 °F - 55.4 °F 88% 30.18 in - ESE 3.5 mph - N/A   Clear
8:20 PM 57.2 °F - 53.6 °F 88% 30.18 in - East 3.5 mph - N/A   Clear
8:50 PM 57.2 °F - 53.6 °F 88% 30.15 in - NNE 4.6 mph - N/A   Clear
9:00 PM 58 °F - 53 °F 80% 30.18 in 6 mi NNE 4.6 mph - -  
9:20 PM 57.2 °F - 53.6 °F 88% 30.15 in - NE 4.6 mph - N/A   Clear
9:50 PM 57.2 °F - 53.6 °F 88% 30.15 in - ENE 4.6 mph - N/A   Clear
10:20 PM 57.2 °F - 51.8 °F 82% 30.15 in - ENE 4.6 mph - N/A   Clear
10:50 PM 55.4 °F - 51.8 °F 88% 30.15 in - NNE 5.8 mph - N/A   Clear
11:20 PM 55.4 °F - 51.8 °F 88% 30.15 in - ENE 4.6 mph - N/A   Clear
11:50 PM 53.6 °F - 51.8 °F 94% 30.15 in - NNE 5.8 mph - N/A   Clear